When you browse on this site, cookies collect data to enhance your experience and personalize the content and advertising you see.
Visit our Privacy Policy to learn more. By continuing to use the site, you agree to this use of cookies and data.
  • en Suisse
  • Liste des pays
  • À 7 jours
  • Température de l'eau
  • Carte satellitaire
  • Carte météo
  • Widgets météo
  • user-avatar
    Se connecter

    Météo par heure à Chakhansur

    Ce jour, 25 Avril, Jeudi

    Heure Température Précipitation Vent Pression Humidité
    00:00 +18°C° 0 mm 11 m/s 719 mmHg 28%
    01:00 +17°C° 0 mm 11 m/s 719 mmHg 28%
    02:00 +17°C° 0 mm 11 m/s 719 mmHg 30%
    03:00 +16°C° 0 mm 11 m/s 719 mmHg 31%
    04:00 +14°C° 0 mm 12 m/s 720 mmHg 33%
    05:00 +14°C° 0 mm 11 m/s 720 mmHg 33%
    06:00 +14°C° 0 mm 10 m/s 720 mmHg 33%
    07:00 +15°C° 0 mm 9 m/s 721 mmHg 33%
    08:00 +17°C° 0 mm 9 m/s 721 mmHg 30%
    09:00 +18°C° 0 mm 9 m/s 721 mmHg 27%
    10:00 +21°C° 0 mm 9 m/s 722 mmHg 23%
    11:00 +23°C° 0 mm 8 m/s 722 mmHg 21%
    12:00 +24°C° 0 mm 8 m/s 721 mmHg 18%
    13:00 +27°C° 0 mm 7 m/s 721 mmHg 15%
    14:00 +27°C° 0 mm 7 m/s 721 mmHg 15%
    15:00 +27°C° 0 mm 6 m/s 720 mmHg 14%
    16:00 +27°C° 0 mm 6 m/s 720 mmHg 14%
    17:00 +27°C° 0 mm 6 m/s 720 mmHg 14%
    18:00 +26°C° 0 mm 5 m/s 720 mmHg 14%
    19:00 +26°C° 0 mm 5 m/s 720 mmHg 15%
    20:00 +24°C° 0 mm 6 m/s 720 mmHg 17%
    21:00 +23°C° 0 mm 6 m/s 720 mmHg 19%
    22:00 +22°C° 0 mm 7 m/s 720 mmHg 21%
    23:00 +21°C° 0 mm 7 m/s 720 mmHg 24%

    Demain, 26 Avril, Vendredi

    Heure Température Précipitation Vent Pression Humidité
    00:00 +20°C° 0 mm 8 m/s 720 mmHg 27%
    01:00 +18°C° 0 mm 8 m/s 719 mmHg 30%
    02:00 +18°C° 0 mm 8 m/s 719 mmHg 31%
    03:00 +17°C° 0 mm 8 m/s 719 mmHg 32%
    04:00 +17°C° 0 mm 8 m/s 719 mmHg 33%
    05:00 +17°C° 0 mm 8 m/s 720 mmHg 33%
    06:00 +17°C° 0 mm 8 m/s 720 mmHg 33%
    07:00 +17°C° 0 mm 8 m/s 720 mmHg 34%
    08:00 +20°C° 0 mm 8 m/s 721 mmHg 29%
    09:00 +21°C° 0 mm 7 m/s 721 mmHg 24%
    10:00 +23°C° 0 mm 7 m/s 721 mmHg 20%
    11:00 +26°C° 0 mm 7 m/s 721 mmHg 18%
    12:00 +27°C° 0 mm 6 m/s 720 mmHg 15%
    13:00 +28°C° 0 mm 5 m/s 720 mmHg 13%
    14:00 +29°C° 0 mm 5 m/s 720 mmHg 13%
    15:00 +29°C° 0 mm 5 m/s 719 mmHg 12%
    16:00 +29°C° 0 mm 4 m/s 719 mmHg 12%
    17:00 +29°C° 0 mm 5 m/s 719 mmHg 13%
    18:00 +28°C° 0 mm 5 m/s 719 mmHg 14%
    19:00 +27°C° 0 mm 6 m/s 719 mmHg 14%
    20:00 +26°C° 0 mm 6 m/s 719 mmHg 16%
    21:00 +24°C° 0 mm 7 m/s 720 mmHg 17%
    22:00 +23°C° 0 mm 7 m/s 720 mmHg 19%
    23:00 +22°C° 0 mm 7 m/s 720 mmHg 21%

    Après-demain, 27 Avril, Samedi

    Heure Température Précipitation Vent Pression Humidité
    00:00 +22°C° 0 mm 8 m/s 720 mmHg 24%
    01:00 +21°C° 0 mm 8 m/s 720 mmHg 26%
    02:00 +20°C° 0 mm 8 m/s 720 mmHg 28%
    03:00 +20°C° 0 mm 7 m/s 720 mmHg 29%
    04:00 +18°C° 0 mm 7 m/s 719 mmHg 31%
    05:00 +18°C° 0 mm 7 m/s 720 mmHg 30%
    06:00 +18°C° 0 mm 7 m/s 720 mmHg 30%
    07:00 +18°C° 0 mm 7 m/s 721 mmHg 29%
    08:00 +21°C° 0 mm 7 m/s 721 mmHg 25%
    09:00 +23°C° 0 mm 6 m/s 721 mmHg 22%
    10:00 +26°C° 0 mm 6 m/s 722 mmHg 18%
    11:00 +27°C° 0 mm 6 m/s 721 mmHg 16%
    12:00 +29°C° 0 mm 5 m/s 721 mmHg 14%
    13:00 +30°C° 0 mm 5 m/s 720 mmHg 13%
    14:00 +30°C° 0 mm 5 m/s 720 mmHg 12%
    15:00 +32°C° 0 mm 5 m/s 719 mmHg 12%
    16:00 +32°C° 0 mm 5 m/s 719 mmHg 11%
    17:00 +30°C° 0 mm 5 m/s 719 mmHg 12%
    18:00 +30°C° 0 mm 5 m/s 719 mmHg 13%
    19:00 +29°C° 0 mm 5 m/s 719 mmHg 14%
    20:00 +28°C° 0 mm 6 m/s 719 mmHg 15%
    21:00 +27°C° 0 mm 6 m/s 720 mmHg 17%
    22:00 +26°C° 0 mm 7 m/s 720 mmHg 18%
    23:00 +24°C° 0 mm 7 m/s 720 mmHg 20%

    28 Avril, Dimanche

    Heure Température Précipitation Vent Pression Humidité
    00:00 +23°C° 0 mm 7 m/s 719 mmHg 22%
    01:00 +22°C° 0 mm 8 m/s 719 mmHg 24%
    02:00 +22°C° 0 mm 7 m/s 719 mmHg 25%
    03:00 +21°C° 0 mm 7 m/s 719 mmHg 27%
    04:00 +21°C° 0 mm 7 m/s 719 mmHg 28%
    05:00 +21°C° 0 mm 6 m/s 719 mmHg 28%
    06:00 +21°C° 0 mm 6 m/s 719 mmHg 28%
    07:00 +21°C° 0 mm 6 m/s 720 mmHg 29%
    08:00 +23°C° 0 mm 6 m/s 720 mmHg 25%
    09:00 +26°C° 0 mm 5 m/s 720 mmHg 21%
    10:00 +28°C° 0 mm 5 m/s 720 mmHg 17%
    11:00 +29°C° 0 mm 5 m/s 720 mmHg 15%
    12:00 +30°C° 0 mm 4 m/s 719 mmHg 13%
    13:00 +33°C° 0 mm 4 m/s 719 mmHg 12%
    14:00 +33°C° 0 mm 4 m/s 718 mmHg 11%
    15:00 +33°C° 0 mm 4 m/s 718 mmHg 11%
    16:00 +34°C° 0 mm 3 m/s 717 mmHg 10%
    17:00 +33°C° 0 mm 3 m/s 717 mmHg 10%
    18:00 +33°C° 0 mm 3 m/s 717 mmHg 11%
    19:00 +31°C° 0 mm 2 m/s 717 mmHg 11%
    20:00 +30°C° 0 mm 2 m/s 717 mmHg 12%
    21:00 +29°C° 0 mm 2 m/s 717 mmHg 12%
    22:00 +29°C° 0 mm 2 m/s 717 mmHg 13%
    23:00 +28°C° 0 mm 2 m/s 717 mmHg 14%

    29 Avril, Lundi

    Heure Température Précipitation Vent Pression Humidité
    00:00 +27°C° 0 mm 3 m/s 716 mmHg 15%
    01:00 +26°C° 0 mm 3 m/s 716 mmHg 16%
    02:00 +26°C° 0 mm 3 m/s 715 mmHg 17%
    03:00 +25°C° 0 mm 3 m/s 715 mmHg 18%
    04:00 +24°C° 0 mm 3 m/s 715 mmHg 19%
    05:00 +25°C° 0 mm 3 m/s 715 mmHg 18%
    06:00 +25°C° 0 mm 3 m/s 715 mmHg 18%
    07:00 +26°C° 0 mm 4 m/s 716 mmHg 18%
    08:00 +27°C° 0 mm 4 m/s 716 mmHg 16%
    09:00 +29°C° 0 mm 4 m/s 716 mmHg 15%
    10:00 +30°C° 0 mm 3 m/s 716 mmHg 13%
    11:00 +31°C° 0 mm 3 m/s 715 mmHg 12%
    12:00 +33°C° 0 mm 3 m/s 715 mmHg 11%
    13:00 +34°C° 0 mm 3 m/s 714 mmHg 10%
    14:00 +34°C° 0 mm 5 m/s 714 mmHg 10%
    15:00 +35°C° 0 mm 6 m/s 714 mmHg 11%
    16:00 +35°C° 0 mm 7 m/s 713 mmHg 11%
    17:00 +34°C° 0 mm 8 m/s 714 mmHg 13%
    18:00 +32°C° 0 mm 8 m/s 714 mmHg 16%
    19:00 +31°C° 0 mm 8 m/s 714 mmHg 19%
    20:00 +29°C° 0 mm 7 m/s 714 mmHg 21%
    21:00 +28°C° 0 mm 7 m/s 715 mmHg 22%
    22:00 +27°C° 0 mm 7 m/s 715 mmHg 24%
    23:00 +27°C° 0 mm 7 m/s 715 mmHg 24%

    30 Avril, Mardi

    Heure Température Précipitation Vent Pression Humidité
    00:00 +26°C° 0 mm 7 m/s 715 mmHg 25%
    01:00 +26°C° 0 mm 8 m/s 715 mmHg 25%
    02:00 +24°C° 0 mm 8 m/s 715 mmHg 26%
    03:00 +24°C° 0 mm 8 m/s 715 mmHg 28%
    04:00 +23°C° 0 mm 8 m/s 715 mmHg 29%
    05:00 +23°C° 0 mm 9 m/s 716 mmHg 27%
    06:00 +24°C° 0 mm 10 m/s 716 mmHg 26%
    07:00 +24°C° 0 mm 10 m/s 717 mmHg 25%
    08:00 +27°C° 0 mm 10 m/s 717 mmHg 22%
    09:00 +28°C° 0 mm 10 m/s 717 mmHg 20%
    10:00 +29°C° 0 mm 10 m/s 717 mmHg 17%
    11:00 +32°C° 0 mm 10 m/s 717 mmHg 15%
    12:00 +33°C° 0 mm 9 m/s 716 mmHg 13%
    13:00 +34°C° 0 mm 9 m/s 716 mmHg 12%
    14:00 +34°C° 0 mm 9 m/s 715 mmHg 11%
    15:00 +34°C° 0 mm 9 m/s 715 mmHg 10%
    16:00 +36°C° 0 mm 10 m/s 715 mmHg 9%
    17:00 +34°C° 0 mm 9 m/s 715 mmHg 10%
    18:00 +33°C° 0 mm 8 m/s 715 mmHg 10%
    19:00 +32°C° 0 mm 7 m/s 715 mmHg 11%
    20:00 +30°C° 0 mm 7 m/s 715 mmHg 12%
    21:00 +29°C° 0 mm 7 m/s 715 mmHg 14%
    22:00 +28°C° 0 mm 7 m/s 715 mmHg 15%
    23:00 +28°C° 0 mm 7 m/s 715 mmHg 16%
    Voir plus